CZ-6A DEB

Satellite information

Favourite Embed

Satellite Type and Status

DEBRISIN ORBIT

Key statistics

Satellite CZ-6A DEB at a glance.

Uptime

494

Days in orbit

Revolutions

≈ 14.4

Per day

Orbit

LEO

Low Earth Orbit

Inclination

89.0

Latest

Satellite identification and parameters

Extended collection of information and parameters for CZ-6A DEB.

Object identification

Identified? True

Debris? True

Object name: CZ-6A DEB

International designator: 2024-140SZ

Object number (NORAD): 61288

Object ID (CCSDS): 61288

Country: PEOPLES REPUBLIC OF CHINA (PRC)

Current information (Y/N): Y

RCS size: SMALL

Orbital parameters

Period: 100.287 minutes

Inclination: 89.0228 deg

SMA: 7150.278 km

Apoapsis: 777.136 km

Periapsis: 767.151 km

RAAN: 296.094 deg

Eccentricy: 0.00069821

Argument of periapsis: 316.6521 deg

Mean anomaly: 43.4128 deg

Mean motion: 14.35880598 rev/day

Mean motion (dot): 0.00008841 rev/day2

B* drag term: 0.0030439229 1/REarth

Two-line elements (TLE)

Creation date: Dec. 11, 2025, 7:14 p.m.

Reference frame: TEME

Reference center: EARTH

Epoch: Dec. 11, 2025, 2:35 p.m. UTC

TLE line 0: 0 CZ-6A DEB

TLE line 1: 1 61288U 24140SZ 25345.60831820 .00008841 00000-0 30439-2 0 9995

TLE line 2: 2 61288 89.0228 296.0940 0006982 316.6521 43.4128 14.35880598 66707

Live tracking on map

Real-time ground track for satellite CZ-6A DEB.

In-orbit conjunctions

A list of the most updated potential collisions computed for object CZ-6A DEB.

Target Orbit TCA Probability of collision Miss distance Type
IRIDIUM 63 LEO 2025-11-07 06:19:32 0.0002395694 345.0 (m) PAYLOAD
COSMOS 2251 DEB LEO 2025-08-23 23:06:13 0.0001311096 570.0 (m) DEBRIS
CZ-6A DEB SSO 2025-05-09 23:41:42 0.0008515943 10.0 (m) DEBRIS
COSMOS 1867 LEO 2025-04-14 14:14:09 0.0005021498 699.0 (m) PAYLOAD
NOAA 17 DEB SSO 2025-02-14 23:35:07 0.0002090591 113.0 (m) DEBRIS

Associated space launch

18 Low Earth Orbit communication satellites with Ku, Q and V band payloads for the G60 constellation operated by Shanghai Spacecom Satellite Technology (SSST) with funding backed by the Shanghai local government. Initial constellation will consist of 1296 satellites by 2027 with long term plans to expand it to 12000 satellites.

CZ-6A DEB was lifted into orbit during the mission ‘Long March 6A | G60 Polar Group 01’, on board a Long March 6A space rocket.

The launch took place on Aug. 6, 2024, 6:42 a.m. from Launch Complex 9A.

For more information about the launch, click the button.

Launch to space Long March 6A | G60 Polar Group 01
Long March 6A | G60 Polar Group 01

Agency: N/A

Status: Launch Successful

Launch date: Aug. 6, 2024, 6:42 a.m. UTC

Rocket: Long March 6A

Launch pad: Launch Complex 9A

Location: Taiyuan Satellite Launch Center, People's Republic of China

...

Latest news about this satellite

News about space launch
Brightness of first Chinese broadband constellation satellites alarms astronomers

The first satellites of a Chinese broadband constellation are significantly brighter than those of Western systems, posing a new challenge for astronomers.

News about space launch
Chinese rocket stage breaks up into cloud of more than 700 pieces of space debris

HELSINKI — A Chinese Long March 6A rocket’s upper stage has fragmented into a cloud of over 700 pieces of space debris, adding to concerns about long-term orbital safety. China […]

News about space launch
China's Thousand Sails Megaconstellation Kicks Off with Dangerous Debris Field

China's Thousand Sails Megaconstellation Kicks Off with Dangerous Debris Field


Newsletter sign-up

Weekly statistics, charts and insights to help you stay on top of the space industry.